SCP
0 0 0 0 0 0 0 0 0 0 0 0 1 1 1 1 1 1 1 1 1 1 2 2 2 3 3 2 2 1 1 1 1 1 1 0 0 0 0 0 0 0 0 0
0 0 0 0 0 0 0 0 0 0 0 1 1 1 2 1 1 1 1 1 1 1 2 2 2 2 3 2 2 1 1 1 1 1 1 0 0 0 0 0 0 0 0 0
0 0 0 0 0 0 0 0 0 0 1 1 1 2 2 2 1 1 1 1 1 1 2 2 2 3 3 2 2 1 1 1 1 1 1 0 0 0 0 0 0 0 0 0
0 0 0 0 0 0 0 0 1 1 1 2 2 2 2 2 1 1 1 1 1 1 2 2 2 2 2 2 2 1 1 1 1 1 0 0 0 0 0 0 0 0 0 0
0 0 0 0 0 0 0 1 1 2 2 1 1 1 1 1 1 1 2 2 2 1 2 2 2 2 2 2 1 1 1 1 1 0 0 0 0 0 0 0 0 0 0 0
0 0 0 0 0 0 1 1 2 2 2 1 1 1 1 1 1 1 1 2 2 2 2 3 3 2 2 2 1 1 1 1 1 0 0 0 0 0 0 0 0 0 0 0
1 1 1 1 1 1 1 2 2 2 1 1 1 1 1 1 1 1 1 2 2 3 4 4 4 3 2 2 1 1 1 1 1 0 0 0 0 0 0 0 0 0 0 0
2 1 1 1 1 1 2 2 2 1 1 1 0 1 1 1 1 1 1 1 2 3 4 4 4 4 3 2 2 1 1 1 1 1 0 0 0 0 0 0 0 0 0 0
2 1 1 1 1 1 1 1 1 0 0 0 0 0 0 0 0 1 1 1 1 2 3 3 3 3 3 3 2 1 1 1 1 1 0 0 0 0 0 0 0 0 0 0
1 1 0 0 0 0 0 0 0 0 0 0 0 0 0 0 0 0 0 1 1 1 1 1 2 3 3 3 2 1 1 1 1 1 1 1 0 0 0 0 0 0 0 0
1 0 0 0 0 0 0 0 0 0 0 0 0 0 0 0 0 0 0 0 0 0 1 1 1 2 2 2 2 1 1 1 1 1 1 1 1 0 0 0 0 0 0 0
0 0 0 0 0 0 0 0 0 0 0 0 0 0 0 0 0 0 0 0 0 0 0 1 1 1 2 2 2 1 1 1 1 1 1 1 1 0 0 0 0 0 0 0
0 0 0 0 0 0 0 0 0 0 0 0 0 0 0 0 0 0 0 0 0 0 0 0 0 1 1 1 2 1 1 1 1 1 1 1 1 0 0 0 0 0 0 0
0 0 0 0 0 0 0 0 0 0 0 0 0 0 0 0 0 0 0 0 0 0 0 0 0 0 1 1 1 1 1 1 1 1 1 1 1 0 0 0 0 0 0 0
0 0 0 0 0 0 0 0 0 0 0 0 0 0 0 0 1 1 0 0 0 0 0 0 0 0 0 0 1 1 1 1 1 1 1 1 0 0 0 0 0 0 0 0
0 0 0 0 0 0 0 0 0 0 0 0 0 0 0 0 1 1 0 0 0 0 0 0 0 0 0 0 1 1 1 0 0 0 1 0 0 0 0 0 0 0 0 0
0 0 0 0 0 0 0 0 0 0 0 0 0 0 0 0 0 0 0 0 0 0 0 0 0 0 0 0 0 0 0 0 0 0 0 0 0 0 0 0 0 0 0 0
0 0 0 0 0 0 0 0 0 0 0 0 0 0 0 0 0 0 0 0 0 0 0 0 0 0 0 0 0 0 0 0 0 0 0 0 0 0 0 0 0 0 0 0
0 0 0 0 0 0 0 0 0 0 0 0 0 0 0 0 0 0 0 0 0 0 0 0 0 0 0 0 0 0 0 0 0 0 0 0 0 0 0 0 0 0 0 0
0 0 0 0 0 0 0 0 0 0 0 0 0 0 0 0 0 0 0 0 0 0 0 0 0 0 0 0 0 0 0 0 0 0 0 0 0 0 0 0 0 0 0 0
0 0 0 0 0 0 0 0 0 0 0 0 0 0 0 0 0 0 0 0 0 0 0 0 0 0 0 0 0 0 0 0 0 0 0 0 0 0 0 0 0 0 0 0
0 0 0 0 0 0 0 0 0 0 0 0 0 0 0 0 0 0 0 0 0 0 0 0 0 0 0 0 0 0 0 0 0 0 0 0 0 0 0 0 0 0 0 0
0 0 0 0 0 0 0 0 0 0 0 0 0 0 0 0 0 0 0 0 0 0 0 0 0 0 0 0 0 0 0 0 0 0 0 0 0 0 0 0 0 0 0 0
0 0 0 0 0 0 0 0 0 0 0 0 0 0 0 0 0 0 0 0 0 0 0 0 0 0 0 0 0 0 0 0 0 0 0 0 0 0 0 0 0 0 0 0
0 0 0 0 0 0 0 0 0 0 0 0 0 0 0 0 0 0 0 0 0 0 0 0 0 0 0 0 0 0 0 0 0 0 0 0 0 0 0 0 0 0 0 0
0 0 0 0 0 0 0 0 0 0 0 0 0 0 0 0 0 0 0 0 0 0 0 0 0 0 0 0 0 0 0 0 0 0 0 0 0 0 0 0 0 0 0 0
0 0 0 0 0 0 0 0 0 0 0 0 0 0 0 0 0 0 0 0 0 0 0 0 0 0 0 0 0 0 0 0 0 0 0 0 0 0 0 0 0 0 0 0
Wind_Speed
15 17 19 19 18 17 15 15 16 16 16 14 13 13 11 11 11 11 11 10 7 4 2 2 3 3 4 4 4 3 3 3 3 3 3 3 3 3 2 3 2 2 1 1
17 19 19 19 17 15 12 11 12 14 15 14 14 12 12 13 14 14 13 11 8 5 3 2 3 4 4 3 4 4 4 4 5 5 4 4 3 2 0 0 0 0 1 5
15 17 18 14 9 7 7 9 11 14 15 15 14 14 14 14 15 16 14 11 8 6 4 3 4 4 4 4 4 4 5 5 6 7 6 5 5 3 2 2 2 2 4 7
13 15 16 8 8 9 7 8 13 14 15 16 16 16 14 13 12 12 13 12 10 7 6 4 4 5 6 5 5 5 5 6 6 8 8 7 5 4 3 2 3 4 5 6
10 13 14 9 12 11 8 6 17 16 17 19 20 18 15 16 16 14 13 11 9 9 8 5 5 5 5 5 5 6 6 5 6 9 9 9 7 5 4 3 4 5 5 6
10 14 14 9 14 12 9 4 19 20 19 20 21 15 15 20 21 20 18 13 10 10 8 5 5 5 5 6 6 6 6 5 6 8 10 10 8 6 4 4 4 5 6 6
11 12 4 14 15 13 7 10 20 21 21 21 18 16 19 22 21 19 18 19 16 12 7 5 5 6 6 7 6 6 6 6 6 8 10 10 8 6 6 5 5 5 6 6
8 10 3 19 13 10 8 13 16 17 18 19 20 21 23 24 24 23 20 19 19 16 11 7 7 7 8 8 6 5 6 6 7 8 10 10 10 8 7 6 6 6 6 6
5 5 7 11 10 7 8 10 12 14 15 16 18 19 21 22 23 23 22 20 17 17 16 12 8 8 10 8 7 6 6 7 7 8 7 9 11 10 8 7 7 7 7 6
3 9 6 8 10 9 10 10 12 12 13 13 14 17 18 18 19 20 21 21 18 17 16 16 13 9 9 8 7 7 7 7 7 8 8 9 8 9 9 9 8 8 8 7
6 9 10 10 13 13 14 14 15 15 15 16 16 17 17 15 15 16 18 18 17 16 15 16 16 12 10 9 8 8 8 7 8 9 9 9 9 7 8 7 7 7 6 6
5 7 8 12 13 16 17 18 19 20 20 19 19 19 18 16 14 14 15 16 17 18 17 16 15 14 10 9 9 9 8 9 9 8 8 8 8 7 5 3 8 10 9 8
4 8 11 14 17 19 20 22 22 22 22 22 21 19 19 17 15 15 15 16 17 18 17 16 14 13 11 10 10 10 10 9 9 9 10 10 9 10 8 6 8 8 12 14
8 11 15 17 19 21 22 24 24 24 23 22 21 20 19 18 18 17 16 16 16 17 18 16 14 12 10 10 11 11 12 11 9 8 9 10 10 10 10 11 9 6 6 13
11 14 18 21 22 23 23 23 24 24 23 22 21 20 20 19 19 18 17 17 16 15 16 16 15 12 9 10 10 12 12 10 10 8 8 9 9 10 10 11 11 11 9 7
17 19 20 22 23 24 25 26 25 24 24 23 21 19 20 20 19 18 17 17 17 17 14 13 14 12 9 9 10 10 10 13 12 9 9 8 9 9 10 10 9 10 12 11
20 21 22 23 25 25 25 25 24 24 24 23 22 22 21 20 19 18 18 17 16 16 14 12 12 11 8 8 8 8 10 12 12 10 8 8 8 9 8 9 10 9 11 14
20 21 22 23 23 24 24 24 24 24 23 24 24 23 22 21 20 19 18 18 17 17 16 14 10 8 8 8 7 7 9 10 11 11 8 7 8 8 8 9 11 12 9 13
21 22 23 23 23 23 23 23 23 22 23 22 22 22 21 21 21 20 19 18 18 17 16 13 8 6 7 8 8 7 9 8 8 10 8 8 9 8 8 9 10 11 11 12
22 22 24 24 24 23 22 22 22 21 21 21 21 22 22 22 21 21 20 18 15 14 14 12 10 8 7 6 6 7 9 8 8 10 10 9 9 8 8 10 10 11 10 12
23 24 25 24 23 23 22 21 20 21 21 21 22 22 22 21 20 19 17 16 16 16 14 12 8 7 5 4 4 6 8 8 7 9 10 10 9 9 9 10 11 10 11 11
22 23 24 24 23 23 20 18 18 20 21 22 23 23 22 20 19 18 18 15 15 15 12 10 8 5 4 3 4 5 6 7 6 8 9 9 9 9 9 10 10 10 10 11
21 22 22 23 23 22 21 18 18 19 21 23 23 23 21 18 14 13 14 12 12 13 10 9 6 5 5 4 4 5 6 6 6 8 10 10 9 9 9 10 9 10 10 10
21 21 22 21 21 20 19 19 19 18 20 21 20 21 19 15 12 11 11 13 14 15 12 9 8 8 8 5 4 5 5 6 6 7 9 11 10 10 10 9 9 10 10 11
20 20 21 20 19 15 16 17 20 20 20 17 20 20 16 11 10 10 10 12 13 12 11 10 11 11 8 5 5 5 5 6 6 6 6 8 11 11 11 10 10 10 10 10
18 17 16 15 14 12 12 13 14 15 17 17 17 15 13 10 9 8 8 10 13 11 10 7 6 8 7 6 5 6 6 6 7 8 7 6 10 11 10 11 13 11 9 9
18 16 13 15 15 14 14 14 15 16 17 17 19 17 14 10 7 7 8 7 7 7 7 6 5 6 6 6 6 6 6 6 7 7 6 6 6 8 10 11 10 9 9 9
Wind_Direction
293 296 295 292 291 290 288 289 292 300 308 325 347 346 346 342 336 328 321 311 300 291 289 268 265 263 260 258 253 249 242 225 180 148 128 108 89 62 22 3 360 345 359 76
289 289 290 289 288 288 291 302 314 322 326 345 349 352 354 349 338 326 317 312 310 307 301 276 255 256 255 250 247 233 234 224 187 168 160 149 142 146 120 353 270 213 76 75
290 296 297 294 310 311 308 325 339 333 340 351 355 356 350 338 322 315 317 320 319 313 293 257 235 231 235 240 236 229 228 226 193 180 176 172 172 175 185 200 187 134 94 90
285 289 283 297 354 342 328 359 5 356 357 355 347 339 328 322 334 342 333 323 316 304 295 268 235 218 211 223 227 227 227 225 200 186 181 176 179 178 182 182 153 119 106 105
289 290 296 338 21 10 348 1 30 2 351 345 340 330 327 343 341 327 314 303 295 286 275 264 246 234 222 220 226 230 229 217 199 187 179 177 178 176 173 163 148 133 121 117
273 288 296 356 2 350 313 295 16 358 352 347 345 335 329 333 330 328 324 314 300 288 268 246 233 224 225 229 225 228 223 209 193 181 178 179 175 169 168 163 163 152 134 130
262 266 260 21 4 354 335 351 359 358 355 351 345 332 328 333 334 332 331 327 322 310 284 242 222 211 216 230 233 225 210 197 187 174 176 176 169 168 169 171 170 158 141 140
306 292 337 15 30 38 358 350 356 357 354 346 339 335 335 335 333 331 333 334 332 330 315 272 225 212 215 222 227 219 201 194 183 174 180 174 169 172 175 173 161 152 150 149
14 57 81 51 56 34 6 353 348 344 339 335 331 329 328 327 328 327 328 330 331 330 328 303 254 218 218 215 214 217 203 189 181 179 185 165 171 172 174 176 175 169 169 167
40 83 78 59 28 6 351 335 324 319 313 311 310 310 313 315 316 319 322 324 326 328 328 321 296 249 222 211 205 210 205 185 178 176 175 171 175 176 179 182 186 182 178 173
12 16 350 355 351 338 327 319 312 307 301 298 296 296 299 302 306 311 313 315 318 319 321 323 319 287 235 212 208 208 202 185 181 181 177 173 177 179 189 186 187 180 177 164
358 353 318 312 313 310 305 302 299 297 297 298 299 300 301 299 298 298 302 308 312 315 319 321 324 313 276 225 208 207 202 191 187 183 175 173 171 155 69 117 151 159 154 149
294 290 285 286 288 288 288 293 297 301 304 306 305 303 302 299 297 297 299 303 307 310 310 313 318 318 305 259 226 209 206 194 191 186 176 176 173 165 150 95 84 112 137 140
279 279 285 291 296 299 300 301 301 300 299 298 298 299 299 299 299 299 299 299 300 303 304 305 309 316 322 295 250 220 210 199 196 190 178 178 174 173 169 165 158 137 115 134
293 291 293 298 300 302 304 304 304 304 304 302 301 301 302 301 301 302 302 300 296 294 297 300 304 311 322 316 278 236 216 204 198 194 181 179 175 174 176 176 176 165 144 136
306 306 307 310 313 315 316 316 315 313 311 309 306 303 300 298 297 299 302 303 299 294 291 294 297 303 315 315 299 256 225 215 196 194 185 181 180 181 179 177 178 171 165 161
317 320 323 323 321 320 321 320 318 317 316 314 311 307 303 299 296 295 297 299 299 295 289 284 285 293 302 304 293 262 230 215 202 197 188 182 183 186 182 177 178 176 172 168
325 324 323 321 320 320 320 320 319 318 316 315 314 311 308 303 299 298 297 297 296 294 289 282 277 283 290 294 287 258 238 218 199 198 193 184 181 184 183 179 179 177 173 164
326 323 321 321 321 320 320 318 317 317 316 316 316 313 309 306 303 301 299 296 294 293 289 285 268 257 276 284 287 260 241 225 197 194 194 184 184 187 184 181 180 179 175 166
322 322 322 322 322 320 317 316 317 317 316 316 314 310 307 305 303 300 297 293 287 285 287 285 274 264 270 277 284 263 241 222 203 193 194 194 192 188 183 182 183 185 181 172
322 322 322 321 319 317 316 317 318 317 317 316 310 305 301 299 296 294 290 287 286 287 287 281 265 254 252 269 275 260 241 221 206 199 195 198 191 189 188 184 184 188 187 181
321 320 320 319 318 318 319 321 321 319 317 311 306 302 298 294 290 285 279 276 277 279 279 278 267 246 224 247 257 253 238 224 215 204 195 200 191 186 190 188 186 191 193 190
319 318 319 320 319 320 324 326 325 321 315 310 306 302 296 289 283 278 277 274 275 275 273 272 262 215 201 226 239 240 237 227 225 214 197 196 195 187 191 191 190 192 192 193
319 321 321 320 323 325 328 327 324 319 313 309 303 300 296 289 280 269 265 268 266 269 269 263 236 213 209 231 233 229 227 230 232 225 204 192 192 190 192 195 193 194 195 193
322 323 323 326 328 330 329 327 324 320 317 312 307 305 298 283 275 273 268 269 268 263 265 253 221 209 213 225 224 221 224 227 234 236 218 194 189 189 189 194 196 196 198 198
326 322 326 326 332 330 331 327 321 317 318 317 316 314 309 299 281 269 263 263 263 258 260 256 222 202 217 220 221 219 224 228 229 233 230 212 196 190 189 192 194 197 200 201
326 327 329 333 334 336 332 325 320 319 319 319 320 318 315 311 298 281 271 267 265 261 259 252 225 202 208 215 219 218 221 226 230 224 221 221 204 192 190 189 194 196 197 198